Location: Gwatt
(46.7204°N, 7.6223°E)
Time: 01:38:42
(UTC+00:00)

USA 116 - Pass Details

Date: 18 September 2020
Orbit: 405 x 834 km, 97.9° (Epoch: 18 November)

Event Time Altitude Azimuth Distance (km) Brightness Sun altitude
Rises 18:17:41 0° 14° (NNE) 2,428 7.0 -8.2°
Reaches altitude 10° 18:19:37 10° 16° (NNE) 1,592 6.0 -8.5°
Maximum altitude 18:23:00 80° 104° (ESE) 496 3.4 -9.1°
Drops below altitude 10° 18:26:45 10° 191° (S) 1,759 6.3 -9.7°
Sets 18:28:59 0° 192° (SSW) 2,713 7.3 -10.1°
